Weather History for KIMT - January, 2013

Change the Weather History Date:

Tuesday, January 22, 2013

  Actual Average Record
Temperature  
Mean Temperature -7 °F -  
Max Temperature 1 °F 27 °F 45 °F (1964)
Min Temperature -15 °F 6 °F -24 °F (1984)
Degree Days  
Heating Degree Days 72    
Moisture  
Dew Point -17 °F    
Average Humidity 61    
Maximum Humidity 71    
Minimum Humidity 49    
Precipitation  
Precipitation 0.00 in - - ()
Sea Level Pressure  
Sea Level Pressure 30.24 in    
Wind  
Wind Speed 6 mph (WNW)    
Max Wind Speed 13 mph    
Max Gust Speed 20 mph    
Visibility 10 miles    
Events      
Averages and records for this station are not official NWS values.
T = Trace of Precipitation, MM = Missing Value Source: NWS Daily Summary

Daily Weather History Graph

Daily Weather History Graph

Search for Another Location

Airport or City:

Trip Planner

Search our weather history database for the weather conditions in past years. The results will help you decide how hot, cold, wet, or windy it might be!

Date:

Astronomy

Jan. 22, 2013 Rise Set
Actual Time 7:24 AM CST 4:44 PM CST
Civil Twilight 6:51 AM CST 5:17 PM CST
Nautical Twilight 6:15 AM CST 5:53 PM CST
Astronomical Twilight 5:40 AM CST 6:28 PM CST
Moon 1:04 PM CST (1/22) 3:47 AM CST (1/22)
Length of Visible Light 10h 25m
Length of Day
9h 19m
Waxing Gibbous, 83% of the Moon is Illuminated
Jan 22
Waxing Gibbous
Jan 26
Full
Feb 3
Last Quarter
Feb 10
New
Feb 17
First Quarter

Hourly Weather History & Observations

Time (CST) Temp. Windchill Dew Point Humidity Pressure Visibility Wind Dir Wind Speed Gust Speed Precip Events Conditions
12:34 AM -11.2 °F -26.4 °F -18.4 °F 70% 30.07 in 10.0 mi WNW 6.9 mph - N/A   Mostly Cloudy
12:54 AM -11.0 °F -24.6 °F -18.9 °F 68% 30.19 in 10.0 mi WNW 5.8 mph - N/A   Mostly Cloudy
1:08 AM -11.2 °F -26.4 °F -18.4 °F 70% 30.07 in 10.0 mi West 6.9 mph - N/A   Mostly Cloudy
1:41 AM -11.2 °F -26.4 °F -18.4 °F 70% 30.09 in 10.0 mi WNW 6.9 mph - N/A   Partly Cloudy
1:54 AM -11.9 °F -27.3 °F -18.9 °F 71% 30.21 in 10.0 mi West 6.9 mph - N/A   Partly Cloudy
3:54 AM -13.0 °F -28.6 °F -20.9 °F 68% 30.24 in 10.0 mi West 6.9 mph - N/A   Clear
4:54 AM -14.1 °F -23.9 °F -20.9 °F 71% 30.25 in 10.0 mi West 3.5 mph - N/A   Clear
5:54 AM -14.1 °F -26.3 °F -20.9 °F 71% 30.25 in 10.0 mi WNW 4.6 mph - N/A   Clear
6:54 AM -15.0 °F -25.0 °F -22.0 °F 71% 30.27 in 10.0 mi West 3.5 mph - N/A   Clear
7:54 AM -14.1 °F -26.3 °F -22.0 °F 68% 30.28 in 10.0 mi West 4.6 mph - N/A   Clear
8:54 AM -11.9 °F -25.7 °F -20.9 °F 64% 30.28 in 10.0 mi WNW 5.8 mph - N/A   Clear
9:54 AM -8.0 °F -22.5 °F -18.9 °F 59% 30.29 in 10.0 mi WNW 6.9 mph - N/A   Mostly Cloudy
10:54 AM -4.0 °F -17.8 °F -17.0 °F 54% 30.29 in 10.0 mi NW 6.9 mph - N/A   Clear
11:54 AM -0.9 °F -19.1 °F -15.0 °F 52% 30.29 in 10.0 mi WNW 12.7 mph 17.3 mph N/A   Partly Cloudy
12:54 PM -0.0 °F -16.3 °F -15.0 °F 49% 30.26 in 10.0 mi NW 10.4 mph 19.6 mph N/A   Clear
1:54 PM 1.0 °F -14.9 °F -14.1 °F 49% 30.27 in 10.0 mi NW 10.4 mph - N/A   Partly Cloudy
2:54 PM 1.0 °F -15.8 °F -14.1 °F 49% 30.27 in 10.0 mi WNW 11.5 mph - N/A   Scattered Clouds
3:54 PM 1.0 °F -12.9 °F -14.1 °F 49% 30.28 in 10.0 mi WNW 8.1 mph - N/A   Clear
4:54 PM -0.0 °F - -14.1 °F 52% 30.28 in 10.0 mi Calm Calm - N/A   Clear
5:54 PM -0.9 °F - -14.1 °F 54% 30.28 in 10.0 mi Calm Calm - N/A   Clear
6:54 PM -0.9 °F -11.0 °F -14.1 °F 54% 30.28 in 10.0 mi WSW 4.6 mph - N/A   Clear
7:54 PM -2.0 °F - -14.1 °F 57% 30.27 in 10.0 mi Calm Calm - N/A   Clear
8:54 PM -5.1 °F -13.6 °F -16.1 °F 59% 30.27 in 10.0 mi WNW 3.5 mph - N/A   Clear
9:54 PM -5.1 °F -17.6 °F -16.1 °F 59% 30.26 in 10.0 mi WNW 5.8 mph - N/A   Clear
10:54 PM -4.0 °F -19.0 °F -15.0 °F 59% 30.25 in 10.0 mi West 8.1 mph - N/A   Clear